Location: Unspecified
(0.0000°N, 0.0000°E)
Time: 06:50:52
(UTC+00:00)

Cosmos 1602 Rocket - Pass Details

Date: 27 January 2013
Orbit: 605 x 633 km, 82.5° (Epoch: 25 May)

Event Time Altitude Azimuth Distance (km) Brightness Sun altitude
Exits shadow 19:48:06 28° 354° (N) 1,148 4.8 -22.5°
Maximum altitude 19:50:21 86° 266° (W) 618 3.4 -23.1°
Drops below altitude 10° 19:54:42 10° 178° (S) 1,962 6.3 -24.1°
Sets 19:56:54 0° 177° (S) 2,864 7.2 -24.6°
